This demonstration page uses our WeatherBlox Daily Observations layout. Learn more.

Left ArrowRight Arrow

41.55636, -103.73856

Hourly Observations for January 23, 2015

Temp ( °F °C ) Dew Point ( °F °C ) Humidity (%) Winds ( mph kmh ) Pressure ( in mb ) Visibility ( mi km ) Precip ( " mm )
12:53 am 00:53 Clear 20 -6.7 13 -10.6 74 74 WNW 9 15 30.22 1023 10 16 0.00 0.00
1:53 am 01:53 Clear 22 -5.6 14 -10 71 71 NNW 5 7 30.22 1023 10 16 0.00 0.00
2:53 am 02:53 Clear 20 -6.7 13 -10.6 74 74 NW 6 9 30.23 1024 10 16 0.00 0.00
3:53 am 03:53 Clear 23 -5 15 -9.4 72 72 WNW 12 19 30.22 1024 10 16 0.00 0.00
4:53 am 04:53 Clear 27 -2.8 16 -8.9 63 63 WNW 12 19 30.22 1023 10 16 0.00 0.00
5:53 am 05:53 Mostly Cloudy 25 -3.9 16 -8.9 69 69 WNW 7 11 30.25 1024 10 16 0.00 0.00
6:53 am 06:53 Partly Cloudy 25 -3.9 17 -8.3 72 72 WNW 10 17 30.27 1025 10 16 0.00 0.00
7:53 am 07:53 Cloudy 30 -1.1 19 -7.2 64 64 WNW 13 20 30.25 1025 10 16 0.00 0.00
8:53 am 08:53 Sunny 33 0.6 21 -6.1 61 61 WNW 15 24 30.26 1025 10 16 0.00 0.00
9:53 am 09:53 Sunny 37 2.8 23 -5 57 57 WNW 17 28 30.26 1025 10 16 0.00 0.00
10:53 am 10:53 Sunny 38 3.3 26 -3.3 62 62 NW 15 24 30.27 1025 10 16 0.00 0.00
11:53 am 11:53 Sunny 42 5.6 28 -2.2 58 58 NW 10 17 30.24 1024 10 16 0.00 0.00
12:53 pm 12:53 Mostly Cloudy 43 6.1 29 -1.7 58 58 W 9 15 30.23 1024 10 16 0.00 0.00
1:53 pm 13:53 Cloudy 42 5.6 29 -1.7 60 60 WNW 9 15 30.23 1024 10 16 0.00 0.00
2:53 pm 14:53 Cloudy 42 5.6 29 -1.7 60 60 NW 8 13 30.25 1025 10 16 0.00 0.00
3:53 pm 15:53 Cloudy 41 5 29 -1.7 62 62 NW 9 15 30.26 1025 10 16 0.00 0.00
4:53 pm 16:53 Mostly Sunny 38 3.3 29 -1.7 70 70 WNW 8 13 30.27 1025 10 16 0.00 0.00
5:53 pm 17:53 Clear 36 2.2 28 -2.2 73 73 W 8 13 30.28 1026 10 16 0.00 0.00
6:53 pm 18:53 Clear 37 2.8 27 -2.8 67 67 W 10 17 30.30 1026 10 16 0.00 0.00
7:53 pm 19:53 Clear 35 1.7 26 -3.3 70 70 W 10 17 30.29 1026 10 16 0.00 0.00
8:53 pm 20:53 Clear 33 0.6 25 -3.9 72 72 WNW 7 11 30.27 1025 10 16 0.00 0.00
9:53 pm 21:53 Clear 30 -1.1 24 -4.4 79 79 WNW 7 11 30.26 1025 10 16 0.00 0.00
10:53 pm 22:53 Clear 28 -2.2 22 -5.6 78 78 Calm 30.25 1025 10 16 0.00 0.00
11:53 pm 23:53 Clear 28 -2.2 23 -5 81 81 WNW 9 15 30.20 1023 10 16 0.00 0.00

Powered by AerisWeather